Regional Weather Roundup
Issued by NWS

Home | Current Version | Previous Version | Text Only | Print | Product List | Glossary Off
Versions: 1 2 3 4 5 6 7 8 9 10 11 12 13 14 15 16 17 18 19 20 21 22 23 24 25 26 27 28 29 30 31 32 33 34 35 36 37 38 39 40 41 42 43 44 45 46 47 48 49 50

000
ASUS43 KMKX 170621
RWRWI

WISCONSIN REGIONAL WEATHER ROUNDUP
NATIONAL WEATHER SERVICE MILWAUKEE/SULLIVAN WI
100 AM CDT THU APR 17 2014

NOTE: "FAIR" INDICATES FEW OR NO CLOUDS BELOW 12,000 FEET WITH NO
SIGNIFICANT WEATHER AND/OR OBSTRUCTIONS TO VISIBILITY.

WIZ001-002-006>008-014>016-023>028-170700-
NORTHWEST WISCONSIN

CITY           SKY/WX    TMP DP  RH WIND       PRES   REMARKS
SUPERIOR ARPT  LGT SNOW  30  29  96 NE16G25   30.14F WCI  18
6HR MIN TEMP:  28; 6HR MAX TEMP:  30; 6HR PCP:  0.02;

ASHLAND        LGT SNOW  28  27  96 NE17      30.12F VSB 1   WCI  16
6HR MIN TEMP:  27; 6HR MAX TEMP:  28; 6HR PCP:  0.09;

HAYWARD        LGT SNOW  30  27  88 NE8       30.03S VSB 1   WCI  22
6HR MIN TEMP:  28; 6HR MAX TEMP:  30; 6HR PCP:  0.03;

SIREN          LGT SNOW  28  27  93 NE14G22   30.03S WCI  17
6HR MIN TEMP:  28; 6HR MAX TEMP:  29;

RICE LAKE      LGT SNOW  34  32  91 E8        29.99S WCI  28
6HR MIN TEMP:  34; 6HR MAX TEMP:  35; 6HR PCP:  0.02;

LADYSMITH      CLOUDY    38  29  72 E12       30.01S WCI  30
6HR MIN TEMP:  34; 6HR MAX TEMP:  38;

EAU CLAIRE     RAIN      38  35  89 E12       29.94F WCI  30
6HR MIN TEMP:  38; 6HR MAX TEMP:  49; 6HR PCP:  0.14;

MENOMONIE      LGT RAIN  37  37  98 E10       29.94S WCI  30
6HR MIN TEMP:  37; 6HR MAX TEMP:  46; 6HR PCP:  0.20;

NEW RICHMOND   LGT RAIN  33  33 100 N9        29.97R WCI  25
6HR MIN TEMP:  33; 6HR MAX TEMP:  34; 6HR PCP:  0.58;

OSCEOLA        LGT SNOW  30  30 100 N9        30.02R WCI  22
6HR MIN TEMP:  30; 6HR MAX TEMP:  33;

$$

WIZ003>005-009-010-017-018-170700-
NORTH CENTRAL WISCONSIN

CITY           SKY/WX    TMP DP  RH WIND       PRES   REMARKS
WOODRUFF       LGT SNOW  32  29  90 SE12      30.07F VSB 1   WCI  23
6HR MIN TEMP:  32; 6HR MAX TEMP:  32; 6HR PCP:  0.05;

RHINELANDER    LGT SNOW  30  28  92 E14       30.09S VSB 1   WCI  19
6HR MIN TEMP:  29; 6HR MAX TEMP:  30; 6HR PCP:  0.03;

EAGLE RIVER    LGT SNOW  30  29  96 SE10      30.10F WCI  21
6HR MIN TEMP:  29; 6HR MAX TEMP:  30;

LAND O LAKES   LGT SNOW  30  28  94 SE8       30.12F WCI  22
6HR MIN TEMP:  29; 6HR MAX TEMP:  30;

PHILLIPS       LGT SNOW  32  31  96 SE9       30.02F VSB 1   WCI  24
6HR MIN TEMP:  31; 6HR MAX TEMP:  32; 6HR PCP:  0.02;

TOMAHAWK       LGT SNOW  31  30  94 SE7G17    30.06F WCI  24
6HR MIN TEMP:  31; 6HR MAX TEMP:  33; 6HR PCP:  0.09;

MEDFORD        FLURRIES  35  28  74 E15G22    30.00S WCI  26
6HR MIN TEMP:  33; 6HR MAX TEMP:  36;

MERRILL        LGT SNOW  33  31  93 CALM      30.07S VSB 3/4
6HR MIN TEMP:  33; 6HR MAX TEMP:  36;

$$

WIZ029-030-035-036-043>047-170700-
CENTRAL WISCONSIN

CITY           SKY/WX    TMP DP  RH WIND       PRES   REMARKS
WAUSAU         LGT SNOW  33  30  88 E15       30.05F FOG     WCI  23
6HR MIN TEMP:  33; 6HR MAX TEMP:  37; 6HR PCP: TRACE;

MOSINEE        FLURRIES  34  32  93 E10G21    30.07S WCI  26
MARSHFIELD     CLOUDY    39  29  67 E15G25    30.00S WCI  31
6HR MIN TEMP:  37; 6HR MAX TEMP:  40; 6HR PCP: TRACE;

STEVENS POINT  LGT RAIN  35  30  82 SE10G20   30.07S WCI  27
6HR MIN TEMP:  35; 6HR MAX TEMP:  37;

WAUPACA        CLOUDY    43  27  52 E10       30.10S
WAUTOMA        CLOUDY    42  28  58 SE14      30.06F
6HR MIN TEMP:  41; 6HR MAX TEMP:  46;

WISC RAPIDS    CLOUDY    41  29  62 SE13G22   30.03F
6HR MIN TEMP:  39; 6HR MAX TEMP:  44; 6HR PCP: TRACE;

CAMP DOUGLAS   MOCLDY    43  31  60 SE13G21   29.96F
6HR MIN TEMP:  43; 6HR MAX TEMP:  48;

$$

WIZ011>013-019>022-031-037>040-048>050-170700-
NORTHEAST WISCONSIN

CITY           SKY/WX    TMP DP  RH WIND       PRES   REMARKS
ANTIGO         CLOUDY    31  26  82 E22G31    30.09F WCI  18
6HR MIN TEMP:  31; 6HR MAX TEMP:  33;

STURGEON BAY   CLOUDY    37  25  60 SE13G24   30.21S WCI  29
6HR MIN TEMP:  32; 6HR MAX TEMP:  39;

GREEN BAY      CLOUDY    40  27  59 SE18G26   30.17S WCI  31
6HR MIN TEMP:  36; 6HR MAX TEMP:  40;

MANITOWOC      FAIR      38  29  70 SE16G24   30.19F WCI  29
6HR MIN TEMP:  38; 6HR MAX TEMP:  40;

APPLETON       CLOUDY    37  27  65 SE15G21   30.12S WCI  28
CLINTONVILLE   CLOUDY    37  28  70 E8        30.13S WCI  31
OSHKOSH        CLOUDY    40  26  57 SE14      30.10F WCI  32
6HR MIN TEMP:  40; 6HR MAX TEMP:  41;

$$

WIZ032>034-041-042-053>061-170700-
SOUTHWEST WISCONSIN

CITY           SKY/WX    TMP DP  RH WIND       PRES   REMARKS
LA CROSSE      CLOUDY    50  29  44 SE18      29.90R
6HR MIN TEMP:  50; 6HR MAX TEMP:  53;

SPARTA         CLOUDY    48  27  44 SE15      29.93S
6HR MIN TEMP:  48; 6HR MAX TEMP:  50;

VIROQUA        CLOUDY    45  29  54 SE18G28   29.91S
6HR MIN TEMP:  45; 6HR MAX TEMP:  49;

BOSCOBEL       CLOUDY    49  28  44 SE10G21   29.95S
6HR MIN TEMP:  49; 6HR MAX TEMP:  53; 6HR PCP: TRACE;

PRAIRIE DU CHI MOCLDY    49  26  41 SE13G22   29.91R
6HR MIN TEMP:  49; 6HR MAX TEMP:  53;

PLATTEVILLE    CLOUDY    46  29  53 SE17G23   29.98F
6HR MIN TEMP:  45; 6HR MAX TEMP:  50;

$$

WIZ056-057-062-063-064-067-068-170700-
SOUTH CENTRAL WISCONSIN

CITY           SKY/WX    TMP DP  RH WIND       PRES   REMARKS
BARABOO/DELLS  CLOUDY    44  28  53 SE15G25   30.00S
6HR MIN TEMP:  44; 6HR MAX TEMP:  47;

LONE ROCK      CLOUDY    47  28  47 SE16G26   29.99S
6HR MIN TEMP:  47; 6HR MAX TEMP:  51;

WATERTOWN      MOCLDY    41  28  61 SE9       30.09S
6HR MIN TEMP:  40; 6HR MAX TEMP:  45;

MADISON        CLOUDY    45  28  51 MISG      30.05F
6HR MIN TEMP:  45; 6HR MAX TEMP:  49;

MIDDLETON      CLOUDY    46  27  48 S16       30.04S
6HR MIN TEMP:  46; 6HR MAX TEMP:  50;

MONROE         CLOUDY    44  29  55 SE21G29   30.03S
JANESVILLE     CLOUDY    43  28  56 SE14G20   30.07F
$$

WIZ051-052-058>065-066-070>072-170700-
SOUTHEAST WISCONSIN

CITY           SKY/WX    TMP DP  RH WIND       PRES   REMARKS
MILWAUKEE      MOCLDY    41  30  65 SE18      30.15F
6HR MIN TEMP:  40; 6HR MAX TEMP:  43;

WAUKESHA       FAIR      37  28  70 SE12      30.13S WCI  30
MILWAUKEE/TIMM FAIR      41  27  56 SE13G20   30.14F
RACINE         FAIR      40  29  64 SE16G24   30.17F WCI  31
6HR MIN TEMP:  40; 6HR MAX TEMP:  42;

BURLINGTON     FAIR      36  28  73 SW6       30.13S WCI  31
6HR MIN TEMP:  36; 6HR MAX TEMP:  44;

KENOSHA        FAIR      40  29  64 SE14      30.15S WCI  32
6HR MIN TEMP:  40; 6HR MAX TEMP:  43;

FOND DU LAC    FAIR      41  26  55 SE18      30.10F
6HR MIN TEMP:  40; 6HR MAX TEMP:  42;

SHEBOYGAN      FAIR      39  27  62 SE13G29   30.17S WCI  31
6HR MIN TEMP:  39; 6HR MAX TEMP:  41;

WEST BEND      FAIR      37  27  65 SE9G17    30.14S WCI  31
JUNEAU         CLOUDY    40  25  55 SE13      30.10S WCI  33
6HR MIN TEMP:  40; 6HR MAX TEMP:  44;

$$

LSZ147-162-170700-
LAKE SUPERIOR

STATION/POSITION TIME  TEMP    WIND        PRES    WAVE
                       AIR SEA DIR/SP/G            HT/PER
                 (UTC) (F)     (DEG/KT/KT) (MB)    (FT/S)
DEVILS ISLAND    0600   30      60/ 34/ 40 1022.5F
PORT WING        0509   29      50/ 20/ 26 1020.7F
SAXON HARBOR     0500           50/ 11/ 14 1020.0F
$$

LMZ867-665-643>646-170700-
LAKE MICHIGAN

STATION/POSITION TIME  TEMP    WIND        PRES    WAVE
                       AIR SEA DIR/SP/G            HT/PER
                 (UTC) (F)     (DEG/KT/KT) (MB)    (FT/S)
NORTHPORT PIER   0500   34      90/ 12/ 16 1023.7F
SISTER BAY       0523   36     130/ 11/ 17   N/A
SHEBOYGAN LAKESH 0600   39     130/ 25/ 29 1021.9F
PORT WASHINGTON  0540   39     140/ 15/ 20 1021.7F
MILWAUKEE LAKESH 0600   39     150/ 15/ 19   N/A
KENOSHA   LAKESH 0600   40     150/ 21/ 24   N/A
$$

TC  - TEMPERATURE IN CELSIUS
VSB - VISIBILITY IN STATUTE MILES
WCI - WIND CHILL INDEX
HX  - HEAT INDEX




USA.gov is the U.S. government's official web portal to all federal, state and local government web resources and services.